North Bend, OR

11:49 PM PDT on May 26, 2017 (GMT -0700)
North Bend Municipal

Weather History for KOTH - September, 2015

Change the Weather History Date:

Monday, September 21, 2015

  Actual Average Record
Temperature  
Mean Temperature 60 °F 57 °F  
Max Temperature 64 °F 65 °F 98 °F (1928)
Min Temperature 55 °F 49 °F 37 °F (1929)
Degree Days  
Heating Degree Days 5 8  
Month to date heating degree days 108 148  
Since 1 July heating degree days 286 527  
Cooling Degree Days 0 0  
Month to date cooling degree days 0 0  
Year to date cooling degree days 14 1  
Growing Degree Days 10 (Base 50)    
Moisture  
Dew Point 55 °F    
Average Humidity 85    
Maximum Humidity 100    
Minimum Humidity 72    
Precipitation  
Precipitation 0.00 in 0.05 in 0.91 in (1972)
Month to date precipitation 0.00 0.93  
Year to date precipitation 19.44 38.17  
Sea Level Pressure  
Sea Level Pressure 30.01 in    
Wind  
Wind Speed 16 mph (North)    
Max Wind Speed 25 mph    
Max Gust Speed 33 mph    
Visibility 9 miles    
Events      
T = Trace of Precipitation, MM = Missing Value Source: NWS Daily Summary

Daily Weather History Graph

Daily Weather History Graph

Search for Another Location

Airport or City:

Trip Planner

Search our weather history database for the weather conditions in past years. The results will help you decide how hot, cold, wet, or windy it might be!

Date:

Astronomy

Sep. 21, 2015 Rise Set
Actual Time 7:02 AM PDT 7:16 PM PDT
Civil Twilight 6:34 AM PDT 7:44 PM PDT
Nautical Twilight 6:00 AM PDT 8:18 PM PDT
Astronomical Twilight 5:26 AM PDT 8:52 PM PDT
Moon 2:49 PM PDT (9/21) No Moon Set
Length of Visible Light 13h 10m
Length of Day
12h 13m
First Quarter, 54% of the Moon is Illuminated
Sep 21
First Quarter
Sep 27
Full
Oct 4
Last Quarter
Oct 12
New
Oct 20
First Quarter

Hourly Weather History & Observations

Time (PDT) Temp. Dew Point Humidity Pressure Visibility Wind Dir Wind Speed Gust Speed Precip Events Conditions
12:15 AM 62.6 °F 62.6 °F 100% 30.03 in 10.0 mi SE 3.5 mph - N/A   Overcast
12:35 AM 62.6 °F 62.6 °F 100% 30.03 in 10.0 mi Calm Calm - N/A   Overcast
12:55 AM 62.6 °F 62.6 °F 100% 30.03 in 10.0 mi Calm Calm - N/A   Overcast
1:15 AM 62.6 °F 62.6 °F 100% 30.04 in 4.0 mi Calm Calm - N/A   Overcast
1:35 AM 62.6 °F 62.6 °F 100% 30.04 in 8.0 mi Calm Calm - N/A   Overcast
1:55 AM 62.6 °F 62.6 °F 100% 30.04 in 10.0 mi Calm Calm - N/A   Overcast
2:15 AM 62.6 °F 62.6 °F 100% 30.04 in 1.5 mi NW 3.5 mph - N/A   Overcast
2:35 AM 62.6 °F 62.6 °F 100% 30.04 in 2.5 mi Calm Calm - N/A   Mostly Cloudy
2:55 AM 60.8 °F 60.8 °F 100% 30.04 in 3.0 mi West 3.5 mph - N/A   Overcast
3:15 AM 60.8 °F 60.8 °F 100% 30.04 in 2.5 mi Calm Calm - N/A   Overcast
3:35 AM 60.8 °F 59.0 °F 94% 30.04 in 3.0 mi North 15.0 mph 23.0 mph N/A   Overcast
3:55 AM 59.0 °F 59.0 °F 100% 30.04 in 7.0 mi North 18.4 mph 24.2 mph N/A   Overcast
4:15 AM 57.2 °F 57.2 °F 100% 30.04 in 10.0 mi North 20.7 mph 26.5 mph N/A   Overcast
4:35 AM 57.2 °F 55.4 °F 94% 30.05 in 10.0 mi North 19.6 mph 25.3 mph N/A   Overcast
4:55 AM 57.2 °F 57.2 °F 100% 30.05 in 5.0 mi North 20.7 mph 27.6 mph N/A   Overcast
5:15 AM 57.2 °F 57.2 °F 100% 30.05 in 4.0 mi North 20.7 mph 27.6 mph N/A   Overcast
5:35 AM 57.2 °F 57.2 °F 100% 30.05 in 10.0 mi North 19.6 mph 26.5 mph N/A   Overcast
5:55 AM 57.2 °F 55.4 °F 94% 30.05 in 10.0 mi North 18.4 mph 24.2 mph N/A   Overcast
6:15 AM 57.2 °F 55.4 °F 94% 30.05 in 10.0 mi North 18.4 mph - N/A   Overcast
6:35 AM 57.2 °F 55.4 °F 94% 30.05 in 10.0 mi North 15.0 mph 19.6 mph N/A   Overcast
6:55 AM 57.2 °F 55.4 °F 94% 30.05 in 10.0 mi North 16.1 mph 19.6 mph N/A   Overcast
7:15 AM 57.2 °F 55.4 °F 94% 30.05 in 10.0 mi North 17.3 mph 23.0 mph N/A   Overcast
7:35 AM 57.2 °F 55.4 °F 94% 30.05 in 10.0 mi North 16.1 mph 23.0 mph N/A   Overcast
7:55 AM 57.2 °F 55.4 °F 94% 30.06 in 10.0 mi North 13.8 mph - N/A   Overcast
8:15 AM 57.2 °F 55.4 °F 94% 30.06 in 10.0 mi North 17.3 mph - N/A   Overcast
8:35 AM 57.2 °F 53.6 °F 88% 30.05 in 10.0 mi North 17.3 mph 23.0 mph N/A   Overcast
8:55 AM 59.0 °F 53.6 °F 82% 30.05 in 10.0 mi North 19.6 mph 25.3 mph N/A   Overcast
9:15 AM 59.0 °F 53.6 °F 82% 30.05 in 10.0 mi North 24.2 mph 27.6 mph N/A   Overcast
9:35 AM 59.0 °F 53.6 °F 82% 30.04 in 10.0 mi North 20.7 mph 25.3 mph N/A   Overcast
9:55 AM 60.8 °F 53.6 °F 77% 30.04 in 10.0 mi North 17.3 mph 23.0 mph N/A   Overcast
10:15 AM 60.8 °F 53.6 °F 77% 30.04 in 10.0 mi North 16.1 mph 26.5 mph N/A   Overcast
10:35 AM 60.8 °F 53.6 °F 77% 30.03 in 10.0 mi North 15.0 mph 23.0 mph N/A   Overcast
10:55 AM 62.6 °F 53.6 °F 72% 30.03 in 10.0 mi North 19.6 mph 24.2 mph N/A   Overcast
11:15 AM 62.6 °F 53.6 °F 72% 30.03 in 10.0 mi North 15.0 mph 20.7 mph N/A   Overcast
11:35 AM 62.6 °F 55.4 °F 77% 30.02 in 10.0 mi North 12.7 mph - N/A   Overcast
11:55 AM 62.6 °F 53.6 °F 72% 30.01 in 10.0 mi North 16.1 mph - N/A   Overcast
12:15 PM 62.6 °F 53.6 °F 72% 30.01 in 10.0 mi North 13.8 mph - N/A   Overcast
12:35 PM 62.6 °F 53.6 °F 72% 30.01 in 10.0 mi North 19.6 mph 23.0 mph N/A   Overcast
12:55 PM 62.6 °F 53.6 °F 72% 30.00 in 10.0 mi North 17.3 mph - N/A   Overcast
1:15 PM 64.4 °F 53.6 °F 68% 29.99 in 10.0 mi North 19.6 mph - N/A   Mostly Cloudy
1:35 PM 64.4 °F 55.4 °F 73% 29.99 in 10.0 mi North 18.4 mph 24.2 mph N/A   Mostly Cloudy
1:55 PM 64.4 °F 55.4 °F 73% 29.98 in 10.0 mi North 18.4 mph - N/A   Overcast
2:15 PM 64.4 °F 55.4 °F 73% 29.97 in 10.0 mi North 23.0 mph - N/A   Overcast
2:35 PM 62.6 °F 53.6 °F 72% 29.97 in 10.0 mi North 25.3 mph 31.1 mph N/A   Overcast
2:55 PM 62.6 °F 53.6 °F 72% 29.97 in 10.0 mi North 23.0 mph 28.8 mph N/A   Overcast
3:15 PM 60.8 °F 53.6 °F 77% 29.97 in 10.0 mi North 25.3 mph 32.2 mph N/A   Overcast
3:35 PM 60.8 °F 53.6 °F 77% 29.96 in 10.0 mi North 23.0 mph 29.9 mph N/A   Overcast
3:55 PM 60.8 °F 53.6 °F 77% 29.96 in 10.0 mi North 20.7 mph - N/A   Overcast
4:15 PM 62.6 °F 53.6 °F 72% 29.96 in 10.0 mi North 20.7 mph 29.9 mph N/A   Mostly Cloudy
4:35 PM 60.8 °F 53.6 °F 77% 29.96 in 10.0 mi North 24.2 mph 29.9 mph N/A   Mostly Cloudy
4:55 PM 60.8 °F 51.8 °F 72% 29.96 in 10.0 mi North 20.7 mph 31.1 mph N/A   Overcast
5:15 PM 60.8 °F 51.8 °F 72% 29.96 in 10.0 mi North 23.0 mph 33.4 mph N/A   Overcast
5:35 PM 59.0 °F 51.8 °F 77% 29.96 in 10.0 mi North 27.6 mph 33.4 mph N/A   Mostly Cloudy
5:55 PM 59.0 °F 51.8 °F 77% 29.96 in 10.0 mi North 25.3 mph 33.4 mph N/A   Scattered Clouds
6:15 PM 59.0 °F 51.8 °F 77% 29.96 in 10.0 mi North 21.9 mph 32.2 mph N/A   Mostly Cloudy
6:35 PM 59.0 °F 51.8 °F 77% 29.95 in 10.0 mi North 23.0 mph 33.4 mph N/A   Overcast
6:55 PM 59.0 °F 51.8 °F 77% 29.95 in 10.0 mi North 20.7 mph - N/A   Overcast
7:15 PM 59.0 °F 51.8 °F 77% 29.95 in 10.0 mi North 19.6 mph - N/A   Overcast
7:35 PM 57.2 °F 51.8 °F 82% 29.95 in 10.0 mi North 18.4 mph - N/A   Overcast
7:55 PM 57.2 °F 51.8 °F 82% 29.96 in 10.0 mi North 17.3 mph 25.3 mph N/A   Overcast
8:15 PM 57.2 °F 51.8 °F 82% 29.96 in 10.0 mi North 17.3 mph 24.2 mph N/A   Overcast
8:35 PM 57.2 °F 51.8 °F 82% 29.97 in 10.0 mi North 16.1 mph 24.2 mph N/A   Overcast
8:55 PM 57.2 °F 51.8 °F 82% 29.97 in 10.0 mi North 15.0 mph 20.7 mph N/A   Overcast
9:15 PM 57.2 °F 51.8 °F 82% 29.97 in 10.0 mi North 12.7 mph 20.7 mph N/A   Mostly Cloudy
9:35 PM 55.4 °F 51.8 °F 88% 29.98 in 10.0 mi North 13.8 mph - N/A   Partly Cloudy
9:55 PM 55.4 °F 51.8 °F 88% 29.98 in 10.0 mi North 15.0 mph - N/A   Clear
10:15 PM 55.4 °F 51.8 °F 88% 29.98 in 10.0 mi North 15.0 mph - N/A   Clear
10:35 PM 55.4 °F 51.8 °F 88% 29.98 in 10.0 mi North 12.7 mph - N/A   Clear
10:55 PM 55.4 °F 51.8 °F 88% 29.98 in 10.0 mi North 12.7 mph - N/A   Clear
11:15 PM 55.4 °F 51.8 °F 88% 29.98 in 10.0 mi North 11.5 mph - N/A   Clear
11:35 PM 55.4 °F 51.8 °F 88% 29.98 in 10.0 mi NNE 10.4 mph - N/A   Clear
11:55 PM 55.4 °F 51.8 °F 88% 29.98 in 10.0 mi NE 4.6 mph - N/A   Partly Cloudy